FW8148 Weather Reports


time (UTC)temp
C
wind
direction
speed
KPH
gust
KPH
rain 1hr
cm
rain 24hr
cm
rain mn
cm
humidity
%
barometer
mb
20260507122705 15 190 1.6 4.8 0.00 0.00 0.00 57 1014.9
20260507121803 16 79 1.6 4.8 0.00 0.00 0.00 57 1014.9
20260507120903 16 51 1.6 4.8 0.00 0.00 0.00 54 1015.0
20260507120222 17 140 1.6 4.8 0.00 0.00 0.00 58 1015.0
20260507115403 15 89 1.6 4.8 0.00 0.00 0.00 58 1015.1
20260507114503 15 86 0.0 4.8 0.00 0.00 0.00 58 1015.1
20260507113603 15 102 1.6 4.8 0.00 0.00 0.00 59 1015.1
20260507112703 16 50 1.6 4.8 0.00 0.00 0.00 58 1015.1
20260507111803 15 28 0.0 3.2 0.00 0.00 0.00 64 1015.2
20260507110903 14 107 0.0 3.2 0.00 0.00 0.00 61 1015.3
20260507110003 15 56 0.0 4.8 0.00 0.00 0.00 63 1015.3
20260507105619 15 58 1.6 4.8 0.00 0.00 0.00 61 1015.3
20260507104503 16 78 1.6 6.4 0.00 0.00 0.00 58 1015.1
20260507103603 16 64 1.6 6.4 0.00 0.00 0.00 60 1015.3
20260507102917 15 55 1.6 4.8 0.00 0.00 0.00 64 1015.1
20260507101803 14 43 1.6 6.4 0.00 0.00 0.00 67 1015.3
20260507100903 15 45 1.6 6.4 0.00 0.00 0.00 64 1015.1
20260507100008 15 29 1.6 9.7 0.00 0.00 0.00 61 1015.2
20260507095403 14 33 3.2 9.7 0.00 0.00 0.00 65 1015.3
20260507094508 14 38 1.6 9.7 0.00 0.00 0.00 69 1015.1
20260507093604 14 36 1.6 6.4 0.00 0.00 0.00 71 1015.4
20260507092703 14 40 1.6 6.4 0.00 0.00 0.00 73 1015.2
20260507092018 13 52 1.6 4.8 0.00 0.00 0.00 73 1015.2
20260507090903 13 42 1.6 4.8 0.00 0.00 0.00 78 1015.2
20260507090004 12 49 1.6 4.8 0.00 0.00 0.00 79 1015.1
20260507085403 13 54 1.6 4.8 0.00 0.00 0.00 80 1015.1
20260507084503 12 34 1.6 4.8 0.00 0.00 0.00 80 1015.0
20260507083603 12 66 1.6 3.2 0.00 0.00 0.00 82 1015.2
20260507082703 11 44 0.0 3.2 0.00 0.00 0.00 84 1015.1
20260507082017 11 22 1.6 4.8 0.00 0.00 0.00 84 1015.0
20260507080903 11 16 0.0 6.4 0.00 0.00 0.00 84 1015.0
20260507080004 11 31 0.0 1.6 0.00 0.00 0.00 85 1015.0
20260507075403 11 15 0.0 3.2 0.00 0.00 0.00 87 1015.0
20260507074503 10 30 1.6 4.8 0.00 0.00 0.00 87 1014.9
20260507073603 10 35 0.0 3.2 0.00 0.00 0.00 87 1014.8
20260507072703 10 34 1.6 3.2 0.00 0.00 0.00 88 1014.8
20260507071803 10 26 1.6 4.8 0.00 0.00 0.00 88 1014.6
20260507070903 10 42 0.0 4.8 0.00 0.00 0.00 90 1014.6
20260507070011 10 37 1.6 4.8 0.00 0.00 0.00 90 1014.7
20260507065403 10 39 1.6 3.2 0.00 0.00 0.00 91 1014.8
20260507064504 9 40 0.0 1.6 0.00 0.00 0.00 92 1014.6
20260507063818 9 46 0.0 1.6 0.00 0.00 0.00 92 1014.6
20260507062703 9 26 0.0 1.6 0.00 0.00 0.00 93 1014.6
20260507062016 9 0 0.0 0.0 0.00 0.00 0.00 94 1014.6
20260507060903 8 0 0.0 0.0 0.00 0.00 0.00 95 1014.5
20260507060003 8 0 0.0 0.0 0.00 0.03 0.00 96 1014.4
20260507055617 8 0 0.0 0.0 0.00 0.03 0.00 96 1014.3
20260507054503 8 0 0.0 0.0 0.00 0.03 0.00 96 1014.3
20260507053817 8 0 0.0 0.0 0.00 0.03 0.00 96 1014.3
20260507052703 8 0 0.0 0.0 0.00 0.03 0.00 97 1014.2
20260507051803 8 0 0.0 0.0 0.00 0.03 0.00 97 1014.0
20260507051118 8 0 0.0 0.0 0.00 0.03 0.00 97 1013.9
20260507050003 7 0 0.0 0.0 0.00 0.03 0.00 97 1013.9
20260507045405 7 0 0.0 0.0 0.00 0.03 0.00 97 1013.6
20260507044718 7 0 0.0 0.0 0.00 0.03 0.00 97 1013.6
20260507043603 7 0 0.0 0.0 0.00 0.03 0.00 97 1013.5
20260507042705 8 0 0.0 0.0 0.00 0.03 0.00 97 1013.3
20260507041803 8 0 0.0 0.0 0.00 0.03 0.00 97 1013.5
20260507040903 8 0 0.0 0.0 0.00 0.03 0.00 97 1013.2
20260507040003 8 0 0.0 0.0 0.00 0.05 0.00 97 1013.3
20260507035403 8 0 0.0 0.0 0.00 0.05 0.00 97 1013.5
20260507034717 8 0 0.0 0.0 0.00 0.05 0.00 96 1013.1
20260507033603 8 0 0.0 0.0 0.00 0.08 0.00 96 1013.1
20260507032703 8 0 0.0 0.0 0.00 0.08 0.00 96 1013.0
20260507031803 8 0 0.0 0.0 0.00 0.08 0.00 96 1013.1
20260507030903 8 0 0.0 0.0 0.00 0.08 0.00 96 1013.2
20260507030003 8 0 0.0 0.0 0.00 0.10 0.00 96 1013.3
20260507025403 8 0 0.0 0.0 0.00 0.10 0.00 96 1013.2
20260507024503 8 0 0.0 0.0 0.00 0.10 0.00 96 1013.5
20260507023603 8 0 0.0 0.0 0.00 0.13 0.00 96 1013.2
20260507022703 8 0 0.0 0.0 0.00 0.13 0.00 96 1013.5
20260507022019 8 0 0.0 0.0 0.00 0.13 0.00 96 1013.1
20260507020903 8 0 0.0 0.0 0.00 0.13 0.00 95 1013.1
20260507020003 8 0 0.0 0.0 0.00 0.13 0.00 95 1013.1
20260507015618 8 0 0.0 0.0 0.00 0.13 0.00 95 1013.0
20260507014503 8 0 0.0 0.0 0.00 0.13 0.00 95 1012.9
20260507013603 8 0 0.0 0.0 0.00 0.13 0.00 95 1013.0
20260507012703 8 0 0.0 0.0 0.00 0.13 0.00 95 1013.1
20260507011803 8 0 0.0 0.0 0.00 0.15 0.00 95 1012.9
20260507010903 9 0 0.0 0.0 0.00 0.15 0.00 95 1012.9
20260507010217 9 0 0.0 0.0 0.00 0.15 0.00 95 1012.7
20260507005403 9 0 0.0 0.0 0.00 0.15 0.00 95 1012.8
20260507004503 9 32 0.0 1.6 0.00 0.15 0.00 95 1012.8
20260507003603 9 33 0.0 1.6 0.00 0.15 0.00 95 1012.9
20260507002703 9 32 0.0 1.6 0.00 0.15 0.00 96 1012.7
20260507001803 9 0 0.0 0.0 0.00 0.18 0.00 96 1012.7
20260507001117 9 0 0.0 0.0 0.00 0.18 0.00 96 1012.8
20260507000008 9 0 0.0 0.0 0.00 0.20 0.00 96 1012.8
20260506235403 9 0 0.0 0.0 0.00 0.20 0.00 96 1012.7
20260506234718 9 0 0.0 0.0 0.00 0.20 0.00 96 1012.7
20260506233603 9 0 0.0 0.0 0.00 0.20 0.00 96 1012.7
20260506232917 9 0 0.0 0.0 0.00 0.20 0.00 96 1012.7
20260506232018 9 0 0.0 0.0 0.00 0.20 0.00 95 1012.7
20260506230903 9 33 0.0 1.6 0.00 0.20 0.00 95 1012.7
20260506230003 9 10 0.0 1.6 0.00 0.20 0.00 95 1012.6
20260506225403 9 10 0.0 1.6 0.00 0.20 0.00 96 1012.6
20260506224503 9 0 0.0 0.0 0.00 0.20 0.00 96 1012.7
20260506223817 9 0 0.0 0.0 0.00 0.20 0.00 96 1012.7
20260506222703 9 0 0.0 0.0 0.00 0.20 0.00 96 1012.4
20260506221803 9 0 0.0 0.0 0.00 0.20 0.00 96 1012.5
20260506220903 9 0 0.0 0.0 0.00 0.20 0.00 96 1012.4
20260506220005 9 0 0.0 0.0 0.00 0.20 0.00 96 1012.3
20260506215403 9 0 0.0 0.0 0.00 0.23 0.20 96 1012.4
20260506214503 9 0 0.0 0.0 0.00 0.23 0.20 96 1012.2
20260506213603 9 0 0.0 0.0 0.00 0.23 0.20 96 1012.2
20260506212703 9 0 0.0 0.0 0.00 0.23 0.20 96 1012.3
20260506211803 9 0 0.0 0.0 0.00 0.23 0.20 96 1012.4
20260506210903 9 0 0.0 0.0 0.00 0.25 0.20 96 1012.4
20260506210003 9 0 0.0 0.0 0.00 0.25 0.20 96 1012.4
20260506205403 9 0 0.0 0.0 0.00 0.28 0.20 96 1012.3
20260506204723 9 0 0.0 0.0 0.00 0.28 0.20 96 1012.2
20260506203606 9 0 0.0 0.0 0.00 0.30 0.20 95 1011.9
20260506202703 9 0 0.0 0.0 0.00 0.30 0.20 95 1012.2
20260506201803 9 0 0.0 0.0 0.00 0.30 0.20 95 1011.7
20260506200903 9 250 0.0 3.2 0.00 0.30 0.20 94 1012.0
20260506200003 9 0 0.0 1.6 0.00 0.33 0.20 94 1011.5
20260506195403 10 262 0.0 3.2 0.00 0.33 0.20 94 1011.8
20260506194503 10 264 0.0 3.2 0.00 0.33 0.20 94 1011.6
20260506193818 10 227 0.0 3.2 0.00 0.33 0.20 94 1011.6
20260506192703 10 159 0.0 1.6 0.00 0.33 0.20 95 1011.3
20260506191803 10 165 0.0 1.6 0.00 0.33 0.20 95 1011.1
20260506190903 10 315 0.0 3.2 0.00 0.33 0.20 95 1011.3
20260506190008 10 64 0.0 1.6 0.00 0.33 0.20 95 1011.1
20260506185403 10 59 0.0 1.6 0.00 0.33 0.20 94 1011.0
20260506184718 10 348 0.0 3.2 0.00 0.36 0.20 94 1011.1
20260506183603 10 28 0.0 3.2 0.00 0.36 0.20 92 1010.9
20260506182919 10 44 0.0 3.2 0.00 0.36 0.20 91 1010.8
20260506181803 10 46 0.0 3.2 0.00 0.38 0.20 89 1010.7
20260506180903 10 32 1.6 4.8 0.00 0.41 0.20 89 1010.6
20260506180008 10 22 1.6 4.8 0.00 0.41 0.20 87 1010.6
20260506175403 11 28 1.6 6.4 0.00 0.43 0.20 88 1010.4
20260506174503 11 21 0.0 3.2 0.00 0.46 0.20 88 1010.4
20260506173603 11 6 0.0 3.2 0.00 0.46 0.20 88 1010.1
20260506172703 11 294 0.0 1.6 0.00 0.48 0.20 88 1010.1
20260506171803 11 26 0.0 3.2 0.00 0.48 0.20 88 1010.2
20260506170903 11 42 1.6 4.8 0.00 0.48 0.20 86 1010.2
20260506170006 11 38 1.6 6.4 0.00 0.48 0.20 83 1010.3
20260506165403 11 43 1.6 4.8 0.00 0.51 0.20 80 1010.0
20260506164717 11 48 1.6 6.4 0.00 0.51 0.20 80 1010.0
20260506163603 11 37 1.6 6.4 0.00 0.51 0.20 79 1009.8
20260506162703 11 39 1.6 3.2 0.00 0.51 0.20 78 1009.9
20260506161803 12 41 1.6 3.2 0.00 0.51 0.20 77 1009.8
20260506160905 12 52 1.6 6.4 0.00 0.51 0.20 77 1009.8
20260506160222 12 42 0.0 3.2 0.00 0.51 0.20 79 1009.8
20260506155403 12 42 0.0 1.6 0.00 0.51 0.20 79 1009.8
20260506154503 12 27 0.0 3.2 0.00 0.53 0.20 78 1009.9
20260506153603 12 32 0.0 3.2 0.00 0.53 0.20 77 1009.7
20260506152917 12 37 1.6 3.2 0.00 0.56 0.20 75 1009.8
20260506151803 13 40 1.6 4.8 0.00 0.56 0.20 74 1009.8
20260506150904 13 39 0.0 3.2 0.00 0.56 0.20 73 1009.7
20260506150224 13 43 0.0 3.2 0.00 0.56 0.20 73 1009.5
20260506145403 13 60 1.6 4.8 0.00 0.56 0.20 73 1009.7
20260506144503 13 25 0.0 3.2 0.00 0.58 0.20 72 1009.8
20260506143603 13 33 0.0 6.4 0.00 0.61 0.20 71 1009.7
20260506142704 13 53 1.6 6.4 0.00 0.64 0.20 73 1009.6
20260506141803 13 31 1.6 4.8 0.00 0.66 0.20 76 1009.7
20260506140903 12 10 0.0 4.8 0.00 0.66 0.20 77 1009.6
20260506140008 12 44 1.6 4.8 0.00 0.66 0.20 77 1009.7
20260506135403 12 31 0.0 4.8 0.00 0.66 0.20 78 1009.7
20260506134505 12 45 0.0 6.4 0.00 0.69 0.20 78 1009.8
20260506133603 12 42 1.6 6.4 0.00 0.69 0.20 76 1009.8
20260506132705 12 34 1.6 3.2 0.00 0.69 0.20 76 1009.9
20260506131803 12 45 1.6 4.8 0.00 0.69 0.20 75 1009.7
20260506131117 13 44 1.6 4.8 0.00 0.69 0.20 74 1009.8
20260506130008 13 42 1.6 9.7 0.00 0.69 0.20 73 1009.5
20260506125405 13 42 1.6 4.8 0.00 0.69 0.20 69 1009.6
20260506124503 14 36 1.6 9.7 0.00 0.69 0.20 69 1009.4
20260506123603 14 35 1.6 4.8 0.00 0.69 0.20 69 1009.1